Location: hvezdarna zebrak
(49.8744°N, 13.8989°E)
Time: 03:32:00
(UTC+01:00)

ISS - Visible Passes

Search period start: 13 March 2026 00:00
Search period end: 23 March 2026 00:00
Orbit: 415 x 426 km, 51.6° (Epoch: 12 March)

Date Brightness Start Highest point End Pass type
(mag) Time Alt. Az. Time Alt. Az. Time Alt. Az.
13 Mar -3.5 19:46:46 10° SW 19:50:03 48° SSE 19:50:15 48° SE visible
14 Mar -2.9 18:59:55 10° SW 19:03:02 34° SSE 19:05:26 15° E visible
14 Mar -2.2 20:36:19 10° W 20:38:26 35° W 20:38:26 35° W visible
15 Mar -3.8 19:49:10 10° WSW 19:52:35 88° SSE 19:53:28 47° ENE visible
15 Mar -0.4 21:26:11 10° W 21:26:28 12° W 21:26:28 12° W visible
16 Mar -3.7 19:02:04 10° WSW 19:05:27 68° SSE 19:08:24 13° ENE visible
16 Mar -2.4 20:38:59 10° W 20:41:24 41° WNW 20:41:24 41° WNW visible
17 Mar -3.5 19:51:46 10° W 19:55:09 67° N 19:56:14 39° ENE visible
17 Mar -0.5 21:28:45 10° WNW 21:29:13 13° WNW 21:29:13 13° WNW visible
18 Mar -3.6 19:04:31 10° W 19:07:56 76° NNW 19:11:00 12° ENE visible
18 Mar -2.5 20:41:33 10° WNW 20:43:59 42° WNW 20:43:59 42° WNW visible
19 Mar -3.5 19:54:18 10° W 19:57:41 62° N 19:58:43 39° ENE visible
19 Mar -0.6 21:31:13 10° WNW 21:31:42 13° WNW 21:31:42 13° WNW visible
20 Mar -3.4 19:07:01 10° W 19:10:25 62° N 19:13:24 13° E visible
20 Mar -2.6 20:43:59 10° WNW 20:46:23 43° WNW 20:46:23 43° WNW visible
21 Mar -3.7 19:56:44 10° WNW 20:00:08 77° NNE 20:01:03 45° E visible
21 Mar -0.5 21:33:42 10° W 21:34:01 12° W 21:34:01 12° W visible
22 Mar -3.6 19:09:26 10° WNW 19:12:50 67° N 19:15:42 14° E visible
22 Mar -2.4 20:46:21 10° WNW 20:48:40 36° WSW 20:48:40 36° WSW visible
